FW4301 Weather Reports


Display with metric or nautical units.
time (UTC)temp
F
wind
direction
speed
MPH
gust
MPH
rain 1hr
in
rain 24hr
in
rain mn
in
humidity
%
barometer
mb
20260505063528 72 0 0.0 6.0 0.00 0.00 0.00 63 1006.6
20260505063045 72 39 1.0 6.0 0.00 0.00 0.00 63 1006.4
20260505062529 72 0 0.0 6.0 0.00 0.00 0.00 62 1006.5
20260505062030 72 39 0.0 8.0 0.00 0.00 0.00 63 1006.5
20260505061545 72 39 1.0 8.0 0.00 0.00 0.00 62 1006.6
20260505061029 72 0 0.0 4.0 0.00 0.00 0.00 62 1006.6
20260505060529 72 39 0.0 6.0 0.00 0.00 0.00 62 1006.6
20260505060057 73 0 1.0 6.0 0.00 0.00 0.00 62 1006.5
20260505055529 73 39 0.0 5.0 0.00 0.00 0.00 62 1006.5
20260505055029 73 40 1.0 8.0 0.00 0.00 0.00 62 1006.5
20260505054546 73 0 2.0 8.0 0.00 0.00 0.00 61 1006.4
20260505054032 73 39 1.0 5.0 0.00 0.00 0.00 61 1006.3
20260505053533 73 39 1.0 8.0 0.00 0.00 0.00 61 1006.4
20260505053110 73 0 2.0 8.0 0.00 0.00 0.00 61 1006.4
20260505052528 73 0 0.0 6.0 0.00 0.00 0.00 61 1006.6
20260505052032 73 39 1.0 4.0 0.00 0.00 0.00 61 1006.8
20260505051546 73 39 0.0 4.0 0.00 0.00 0.00 60 1006.8
20260505051028 73 39 0.0 4.0 0.00 0.00 0.00 60 1006.8
20260505050531 73 0 0.0 4.0 0.00 0.00 0.00 60 1006.9
20260505041547 74 0 1.0 5.0 0.00 0.00 0.00 58 1007.0
20260505041029 74 0 1.0 6.0 0.00 0.00 0.00 57 1007.1
20260505040529 74 0 1.0 6.0 0.00 0.00 0.00 58 1007.1
20260505040049 74 0 0.0 5.0 0.00 0.00 0.00 58 1007.1
20260505035531 74 0 0.0 5.0 0.00 0.00 0.00 58 1007.1
20260505035029 74 0 0.0 5.0 0.00 0.00 0.00 58 1007.2
20260505034601 74 39 0.0 5.0 0.00 0.00 0.00 57 1007.0
20260505034031 74 0 0.0 5.0 0.00 0.00 0.00 57 1006.9
20260505033531 75 39 1.0 4.0 0.00 0.00 0.00 57 1006.9
20260505033052 75 39 1.0 4.0 0.00 0.00 0.00 57 1006.8
20260505032528 75 0 0.0 4.0 0.00 0.00 0.00 57 1006.8
20260505032028 75 39 0.0 4.0 0.00 0.00 0.00 57 1006.8
20260505031547 75 39 1.0 4.0 0.00 0.00 0.00 57 1006.9
20260505031032 75 39 1.0 5.0 0.00 0.00 0.00 57 1006.9
20260505030530 75 40 1.0 5.0 0.00 0.00 0.00 57 1007.0
20260505030040 75 39 1.0 5.0 0.00 0.00 0.00 57 1007.0
20260505025529 74 0 1.0 5.0 0.00 0.00 0.00 57 1007.1
20260505025028 74 0 0.0 5.0 0.00 0.00 0.00 58 1006.6
20260505024540 74 39 1.0 5.0 0.00 0.00 0.00 58 1006.6
20260505024032 74 39 0.0 4.0 0.00 0.00 0.00 58 1006.7
20260505023528 74 39 0.0 4.0 0.00 0.00 0.00 58 1006.7
20260505023048 74 0 0.0 4.0 0.00 0.00 0.00 58 1006.6
20260505022529 74 39 0.0 4.0 0.00 0.00 0.00 58 1006.6
20260505022029 74 39 1.0 4.0 0.00 0.00 0.00 58 1006.3
20260505021542 74 0 1.0 4.0 0.00 0.00 0.00 58 1006.5
20260505021031 74 0 0.0 4.0 0.00 0.00 0.00 58 1006.5
20260505020529 74 0 0.0 4.0 0.00 0.00 0.00 58 1006.3
20260505020039 74 39 0.0 3.0 0.00 0.00 0.00 58 1006.2
20260505015529 74 0 0.0 2.0 0.00 0.00 0.00 57 1006.3
20260505015029 75 0 0.0 2.0 0.00 0.00 0.00 57 1006.2
20260505014540 75 0 0.0 2.0 0.00 0.00 0.00 57 1006.4
20260505014029 75 0 0.0 3.0 0.00 0.00 0.00 57 1006.4
20260505013532 75 0 0.0 3.0 0.00 0.00 0.00 56 1006.4
20260505013045 75 0 0.0 1.0 0.00 0.00 0.00 56 1006.3
20260505012529 75 0 0.0 3.0 0.00 0.00 0.00 56 1006.4
20260505012031 76 0 0.0 3.0 0.00 0.00 0.00 55 1006.3
20260505011604 76 0 0.0 3.0 0.00 0.00 0.00 55 1006.3
20260505011030 76 39 0.0 3.0 0.00 0.00 0.00 54 1006.2
20260505010534 76 39 0.0 4.0 0.00 0.00 0.00 54 1006.1
20260505010040 76 39 1.0 4.0 0.00 0.00 0.00 54 1006.1
20260505005529 76 39 1.0 5.0 0.00 0.00 0.00 53 1006.2
20260505005029 77 39 1.0 5.0 0.00 0.00 0.00 53 1006.3
20260505004540 77 40 1.0 4.0 0.00 0.00 0.00 53 1006.4
20260505004029 77 40 1.0 4.0 0.00 0.00 0.00 53 1006.4
20260505003528 77 39 0.0 4.0 0.00 0.00 0.00 53 1006.5
20260505003039 77 0 1.0 6.0 0.00 0.00 0.00 52 1006.5
20260505002528 77 39 1.0 6.0 0.00 0.00 0.00 52 1006.6
20260505002028 78 40 1.0 4.0 0.00 0.00 0.00 52 1006.7
20260505001540 78 0 1.0 7.0 0.00 0.00 0.00 52 1006.8
20260505001031 78 0 1.0 7.0 0.00 0.00 0.00 51 1006.7
20260505000528 78 40 1.0 5.0 0.00 0.00 0.00 51 1006.7
20260505000100 78 39 0.0 5.0 0.00 0.00 0.00 51 1006.7
20260504235529 78 39 0.0 8.0 0.00 0.00 0.00 51 1006.9
20260504235030 78 0 2.0 9.0 0.00 0.00 0.00 51 1006.9
20260504234543 78 39 3.0 9.0 0.00 0.00 0.00 50 1006.9
20260504234029 78 39 2.0 7.0 0.00 0.00 0.00 50 1006.9
20260504233529 78 39 1.0 10.0 0.00 0.00 0.00 50 1006.9
20260504233054 79 0 2.0 10.0 0.00 0.00 0.00 50 1007.0
20260504232530 79 39 2.0 8.0 0.00 0.00 0.00 50 1007.1
20260504232029 79 39 3.0 7.0 0.00 0.00 0.00 50 1007.1
20260504231542 79 39 4.0 10.0 0.00 0.00 0.00 49 1007.3
20260504231028 79 0 3.0 10.0 0.00 0.00 0.00 49 1007.3
20260504230528 79 39 3.0 10.0 0.00 0.00 0.00 49 1007.2
20260504230042 79 39 3.0 9.0 0.00 0.00 0.00 49 1007.3
20260504225532 79 39 3.0 9.0 0.00 0.00 0.00 49 1007.4
20260504225030 80 39 3.0 9.0 0.00 0.00 0.00 48 1007.4
20260504224544 80 40 2.0 6.0 0.00 0.00 0.00 48 1007.4
20260504224029 80 39 1.0 6.0 0.00 0.00 0.00 48 1007.4
20260504223529 80 39 1.0 6.0 0.00 0.00 0.00 48 1007.5
20260504223042 80 40 2.0 6.0 0.00 0.00 0.00 48 1007.6
20260504222528 80 40 1.0 6.0 0.00 0.00 0.00 47 1007.6
20260504222028 80 40 1.0 8.0 0.00 0.00 0.00 48 1007.7
20260504221542 80 40 2.0 8.0 0.00 0.00 0.00 47 1007.7
20260504221029 80 40 2.0 8.0 0.00 0.00 0.00 47 1007.6
20260504220529 80 40 2.0 10.0 0.00 0.00 0.00 48 1007.6
20260504220041 80 40 3.0 10.0 0.00 0.00 0.00 48 1007.8
20260504215530 80 40 2.0 7.0 0.00 0.00 0.00 47 1007.8
20260504215029 80 40 2.0 7.0 0.00 0.00 0.00 47 1007.8
20260504214540 80 40 2.0 9.0 0.00 0.00 0.00 48 1007.9
20260504214028 81 39 2.0 9.0 0.00 0.00 0.00 47 1007.9
20260504213529 81 40 3.0 9.0 0.00 0.00 0.00 47 1008.0
20260504213048 81 39 2.0 7.0 0.00 0.00 0.00 46 1008.1
20260504212529 81 40 3.0 9.0 0.00 0.00 0.00 47 1008.1
20260504212030 81 39 3.0 9.0 0.00 0.00 0.00 46 1008.3
20260504211542 81 39 2.0 8.0 0.00 0.00 0.00 46 1008.3
20260504211029 81 40 2.0 9.0 0.00 0.00 0.00 46 1008.6
20260504210530 81 40 2.0 9.0 0.00 0.00 0.00 46 1008.7
20260504210042 81 40 2.0 9.0 0.00 0.00 0.00 46 1008.6
20260504205528 81 39 3.0 9.0 0.00 0.00 0.00 46 1008.6
20260504205028 81 39 2.0 9.0 0.00 0.00 0.00 47 1008.7
20260504204540 81 39 2.0 9.0 0.00 0.00 0.00 47 1008.9
20260504204028 81 0 1.0 9.0 0.00 0.00 0.00 47 1009.1
20260504203528 81 39 3.0 9.0 0.00 0.00 0.00 45 1009.1
20260504203046 81 0 1.0 8.0 0.00 0.00 0.00 46 1009.2
20260504202531 81 39 2.0 8.0 0.00 0.00 0.00 47 1009.3
20260504202028 81 39 2.0 9.0 0.00 0.00 0.00 46 1009.5
20260504201545 81 39 3.0 10.0 0.00 0.00 0.00 45 1009.6
20260504201029 81 39 2.0 10.0 0.00 0.00 0.00 48 1009.6
20260504200532 81 39 3.0 10.0 0.00 0.00 0.00 46 1009.8
20260504200045 81 39 3.0 10.0 0.00 0.00 0.00 46 1009.8
20260504195528 81 39 2.0 8.0 0.00 0.00 0.00 45 1009.9
20260504195030 81 39 2.0 8.0 0.00 0.00 0.00 46 1010.1
20260504194545 81 39 2.0 7.0 0.00 0.00 0.00 46 1010.4
20260504194029 81 0 1.0 7.0 0.00 0.00 0.00 47 1010.5
20260504193529 81 40 1.0 7.0 0.00 0.00 0.00 47 1010.5
20260504193042 80 40 2.0 9.0 0.00 0.00 0.00 48 1010.5
20260504192528 80 40 1.0 9.0 0.00 0.00 0.00 47 1010.5
20260504192028 80 40 1.0 9.0 0.00 0.00 0.00 48 1010.4
20260504191605 79 40 3.0 12.0 0.00 0.00 0.00 47 1010.6
20260504191029 79 40 2.0 12.0 0.00 0.00 0.00 48 1010.6
20260504190531 79 40 1.0 9.0 0.00 0.00 0.00 46 1010.8
20260504190049 79 40 1.0 9.0 0.00 0.00 0.00 46 1010.8
20260504185529 80 39 2.0 9.0 0.00 0.00 0.00 46 1010.9
20260504185031 79 40 2.0 7.0 0.00 0.00 0.00 47 1010.8
20260504184548 79 40 2.0 7.0 0.00 0.00 0.00 47 1010.9
20260504184029 79 40 1.0 7.0 0.00 0.00 0.00 48 1010.8
20260504183528 79 0 2.0 10.0 0.00 0.00 0.00 47 1010.9
20260504183047 78 40 1.0 10.0 0.00 0.00 0.00 47 1010.9
20260504182528 78 40 3.0 10.0 0.00 0.00 0.00 47 1011.0
20260504182029 78 40 2.0 6.0 0.00 0.00 0.00 47 1011.2
20260504181551 78 40 1.0 7.0 0.00 0.00 0.00 47 1011.1
20260504181029 78 40 2.0 7.0 0.00 0.00 0.00 47 1011.3
20260504180531 78 40 2.0 9.0 0.00 0.00 0.00 47 1011.3
20260504180039 78 40 2.0 9.0 0.00 0.00 0.00 46 1011.5
20260504175529 78 0 2.0 10.0 0.00 0.00 0.00 47 1011.4
20260504175028 78 40 3.0 10.0 0.00 0.00 0.00 46 1011.6
20260504174539 78 40 1.0 10.0 0.00 0.00 0.00 47 1011.6
20260504174030 77 40 3.0 10.0 0.00 0.00 0.00 46 1011.7
20260504173529 77 40 2.0 10.0 0.00 0.00 0.00 46 1011.7
20260504173040 77 40 2.0 9.0 0.00 0.00 0.00 46 1011.7
20260504172529 77 40 2.0 7.0 0.00 0.00 0.00 46 1011.8
20260504172029 77 40 2.0 7.0 0.00 0.00 0.00 45 1012.0
20260504171547 77 40 3.0 6.0 0.00 0.00 0.00 45 1012.1
20260504171029 77 40 1.0 6.0 0.00 0.00 0.00 45 1012.2
20260504170529 77 40 1.0 6.0 0.00 0.00 0.00 45 1012.3
20260504151033 71 40 3.0 7.0 0.00 0.00 0.00 52 1013.2
20260504150529 71 40 2.0 7.0 0.00 0.00 0.00 52 1013.4
20260504141029 66 40 1.0 5.0 0.00 0.00 0.00 56 1013.7
20260504140532 65 40 1.0 5.0 0.00 0.00 0.00 56 1013.7
20260504130532 61 40 0.0 3.0 0.00 0.00 0.00 62 1013.8
20260504110529 56 0 0.0 0.0 0.00 0.00 0.00 65 1013.6
20260504100530 57 0 0.0 0.0 0.00 0.00 0.00 63 1013.9
20260504090104 59 0 0.0 0.0 0.00 0.00 0.00 61 1014.2
20260504081547 61 0 0.0 0.0 0.00 0.00 0.00 60 1014.4
20260504081029 61 0 0.0 0.0 0.00 0.00 0.00 59 1014.4
20260504080529 61 0 0.0 0.0 0.00 0.00 0.00 59 1014.5